Regional Weather Roundup
Issued by NWS

Home | Current Version | Previous Version | Graphics & Text | Print | Product List | Glossary On
Versions: 1 2 3 4 5 6 7 8 9 10 11 12 13 14 15 16 17 18 19 20 21 22 23 24 25 26 27 28 29 30 31 32 33 34 35 36 37 38 39 40 41 42 43 44 45 46 47 48 49 50
000
ASUS43 KOAX 060410
RWRNE

WEATHER ROUNDUP FOR NEBRASKA
NATIONAL WEATHER SERVICE OMAHA NE
1100 PM CDT THU MAY 05 2016

NOTES: SATELLITE DATA IS BEING USED TO AUGMENT CLOUD COVER ABOVE
       12000 FEET.
       "FAIR" INDICATES FEW OR NO CLOUDS BELOW 12,000 FEET WITH NO
       SIGNIFICANT WEATHER AND/OR OBSTRUCTIONS TO VISIBILITY.

  * THESE STATIONS DO NOT REPORT WEATHER SUCH AS RAIN...SNOW OR FOG.

NEZ001>004-019>022-054>056-060500-
NEBRASKA PANHANDLE

CITY           SKY/WX    TMP DP  RH WIND       PRES   REMARKS
SCOTTSBLUFF    CLOUDY    61  42  49 E8        29.96R
ALLIANCE       CLOUDY    58  49  72 S12       29.96R
CHADRON        CLOUDY    64  44  48 CALM      29.90R
KIMBALL        CLOUDY    59  45  58 S10       30.04R
SIDNEY         CLOUDY    60  46  59 S13       30.01R
$$

NEZ057>060-069>072-079>082-060500-
SOUTHWEST NEBRASKA

CITY           SKY/WX    TMP DP  RH WIND       PRES   REMARKS
NORTH PLATTE   CLOUDY    61  49  64 SE7       29.99R
IMPERIAL       CLOUDY    64  49  57 SE14      30.01R
MCCOOK         CLOUDY    65  48  54 S10       30.01R
OGALLALA       PTCLDY    64  47  53 S14       29.99R
$$

NEZ005>010-023>029-035>040-094-060500-
NORTH CENTRAL NEBRASKA

CITY           SKY/WX    TMP DP  RH WIND       PRES   REMARKS
VALENTINE      PTCLDY    71  45  39 S18       29.90R
AINSWORTH      CLOUDY    66  47  51 S13       29.94R
BROKEN BOW     LGT RAIN  65  48  54 S13       30.00R
O`NEILL        CLEAR     64  48  55 S9        29.96S
ORD            CLEAR     57  48  72 SW8       29.98R
THEDFORD       CLOUDY    69  48  47 S15       29.98R
$$

NEZ041-046>049-061>064-073>077-083>087-060500-
SOUTH CENTRAL NEBRASKA

CITY           SKY/WX    TMP DP  RH WIND       PRES   REMARKS
GRAND ISLAND   CLEAR     61  46  57 S9        30.03R
AURORA         CLEAR     64  42  44 S9        30.02S
HASTINGS       CLEAR     62  44  51 S7        30.04R
HEBRON         CLEAR     60  45  57 S7        30.04R
HOLDREGE       CLEAR     59  47  64 S7        30.04R
KEARNEY *      CLEAR     59  46  63 S9        30.03S
YORK           CLEAR     59  41  51 S7        30.03R
$$

NEZ011>018-030>034-042>045-060500-
NORTHEAST NEBRASKA

CITY           SKY/WX    TMP DP  RH WIND       PRES   REMARKS
NORFOLK        CLEAR     65  42  43 S14       29.98S
ALBION         CLEAR     62  42  47 SE5       29.99S
BLAIR          CLEAR     63  42  46 S7        30.00F
COLUMBUS *     CLEAR     61  39  44 S8        30.02R
FREMONT        CLEAR     64  42  44 S8        30.01S
TEKAMAH        CLEAR     57  48  72 SW7       29.99S
WAYNE          CLEAR     59  46  60 S10       29.99S
$$

NEZ050>053-065>068-078-088>093-060500-
SOUTHEAST NEBRASKA

CITY           SKY/WX    TMP DP  RH WIND       PRES   REMARKS
LINCOLN        CLEAR     60  44  55 S6        30.03R
OMAHA EPPLEY   PTCLDY    61  47  59 SE7       30.00S
BEATRICE       CLEAR     63  43  48 SE6       30.04R
FALLS CITY     CLEAR     63  40  42 S6        30.03R
NEBRASKA CITY  CLEAR     59  40  50 S8        30.03S
PLATTSMOUTH    CLEAR     63  43  47 S9        30.02S
$$

NEZ044-045-051>053-067-060500-
OMAHA AREA

CITY           SKY/WX    TMP DP  RH WIND       PRES   REMARKS
OMAHA EPPLEY   PTCLDY    61  47  59 SE7       30.00S
BLAIR          CLEAR     63  42  46 S7        30.00F
FREMONT        CLEAR     64  42  44 S8        30.01S
MILLARD        CLEAR     59  46  60 CALM      30.01S
OFFUTT AFB     CLEAR     53  50  90 E2        30.00S
PLATTSMOUTH    CLEAR     63  43  47 S9        30.02S
WAHOO          FAIR      59  44  58 S7        30.01S
$$




USA.gov is the U.S. government's official web portal to all federal, state and local government web resources and services.